timestamp,wind_dir_avg,wind_spd_max_dir,wind_spd_avg,wind_spd_gust,battery_voltage,lat,long
2018-06-09 00:00:00+00:00,230.0,230.0,10.18,11.67,,47.59359,-54.27349
2018-06-09 00:10:00+00:00,238.0,238.0,8.94,10.34,,47.59359,-54.27349
2018-06-09 00:20:00+00:00,235.0,238.0,8.45,9.93,,47.59359,-54.27349
2018-06-09 00:30:00+00:00,228.0,229.0,10.06,11.68,,47.59359,-54.27349
2018-06-09 00:40:00+00:00,227.0,228.0,10.33,11.9,,47.59359,-54.27349
2018-06-09 00:50:00+00:00,231.0,233.0,9.6,10.73,,47.59359,-54.27349
2018-06-09 01:00:00+00:00,231.0,235.0,8.9,9.98,,47.59359,-54.27349
2018-06-09 01:10:00+00:00,228.0,224.0,8.89,9.86,,47.59359,-54.27349
2018-06-09 01:20:00+00:00,233.0,238.0,7.91,9.44,,47.59359,-54.27349
2018-06-09 01:30:00+00:00,234.0,232.0,8.24,9.55,,47.59359,-54.27349
2018-06-09 01:40:00+00:00,236.0,240.0,8.24,9.68,,47.59359,-54.27349
2018-06-09 01:50:00+00:00,230.0,232.0,8.65,9.72,,47.59359,-54.27349
2018-06-09 02:00:00+00:00,231.0,233.0,9.01,10.01,,47.59359,-54.27349
2018-06-09 02:10:00+00:00,232.0,238.0,9.77,11.59,,47.59359,-54.27349
2018-06-09 02:20:00+00:00,233.0,235.0,9.45,10.64,,47.59359,-54.27349
2018-06-09 02:30:00+00:00,233.0,238.0,9.23,10.65,,47.59359,-54.27349
2018-06-09 02:40:00+00:00,230.0,230.0,10.85,12.18,,47.59359,-54.27349
2018-06-09 02:50:00+00:00,229.0,233.0,10.86,12.5,,47.59359,-54.27349
2018-06-09 03:00:00+00:00,230.0,231.0,10.8,11.94,,47.59359,-54.27349
2018-06-09 03:10:00+00:00,231.0,232.0,10.12,11.81,,47.59359,-54.27349
2018-06-09 03:20:00+00:00,234.0,238.0,9.82,11.25,,47.59359,-54.27349
2018-06-09 03:30:00+00:00,232.0,235.0,9.08,11.24,,47.59359,-54.27349
2018-06-09 03:40:00+00:00,225.0,229.0,9.73,11.3,,47.59359,-54.27349
2018-06-09 03:50:00+00:00,230.0,238.0,9.44,11.32,,47.59359,-54.27349
2018-06-09 04:00:00+00:00,235.0,241.0,9.0,10.96,,47.59359,-54.27349
2018-06-09 04:10:00+00:00,236.0,239.0,10.32,11.84,,47.59359,-54.27349
2018-06-09 04:20:00+00:00,236.0,236.0,9.54,11.47,,47.59359,-54.27349
2018-06-09 04:30:00+00:00,229.0,234.0,9.51,11.86,,47.59359,-54.27349
2018-06-09 04:40:00+00:00,230.0,237.0,9.96,12.98,,47.59359,-54.27349
2018-06-09 04:50:00+00:00,235.0,238.0,11.21,12.83,,47.59359,-54.27349
2018-06-09 05:00:00+00:00,238.0,240.0,12.32,13.44,,47.59359,-54.27349
2018-06-09 05:10:00+00:00,234.0,235.0,12.11,13.43,,47.59359,-54.27349
2018-06-09 05:20:00+00:00,237.0,240.0,11.5,12.8,,47.59359,-54.27349
2018-06-09 05:30:00+00:00,235.0,240.0,11.47,13.07,,47.59359,-54.27349
2018-06-09 05:40:00+00:00,228.0,234.0,9.98,12.08,,47.59359,-54.27349
2018-06-09 05:50:00+00:00,233.0,239.0,9.25,11.53,,47.59359,-54.27349
2018-06-09 06:00:00+00:00,235.0,237.0,10.69,12.53,,47.59359,-54.27349
2018-06-09 06:10:00+00:00,219.0,229.0,8.0,9.48,,47.59359,-54.27349
2018-06-09 06:20:00+00:00,219.0,232.0,7.7,10.43,,47.59359,-54.27349
2018-06-09 06:30:00+00:00,208.0,208.0,7.2,7.57,,47.59359,-54.27349
2018-06-09 06:40:00+00:00,212.0,214.0,6.0,6.68,,47.59359,-54.27349
2018-06-09 06:50:00+00:00,199.0,199.0,4.99,5.21,,47.59359,-54.27349
2018-06-09 07:00:00+00:00,225.0,231.0,6.23,7.41,,47.59359,-54.27349
2018-06-09 07:10:00+00:00,219.0,213.0,5.55,5.98,,47.59359,-54.27349
2018-06-09 07:20:00+00:00,186.0,188.0,4.26,4.83,,47.59359,-54.27349
2018-06-09 07:30:00+00:00,185.0,185.0,5.65,6.23,,47.59359,-54.27349
2018-06-09 07:40:00+00:00,201.0,198.0,4.27,4.79,,47.59359,-54.27349
2018-06-09 07:50:00+00:00,185.0,185.0,7.77,8.71,,47.59359,-54.27349
2018-06-09 08:00:00+00:00,193.0,199.0,7.58,8.65,,47.59359,-54.27349
2018-06-09 08:10:00+00:00,221.0,224.0,6.1,6.76,,47.59359,-54.27349
2018-06-09 08:20:00+00:00,211.0,217.0,5.26,6.28,,47.59359,-54.27349
2018-06-09 08:30:00+00:00,194.0,200.0,5.83,6.71,,47.59359,-54.27349
2018-06-09 08:40:00+00:00,183.0,177.0,6.83,8.07,,47.59359,-54.27349
2018-06-09 08:50:00+00:00,188.0,187.0,7.37,8.31,,47.59359,-54.27349
2018-06-09 09:00:00+00:00,191.0,193.0,4.96,7.14,,47.59359,-54.27349
2018-06-09 09:10:00+00:00,183.0,179.0,5.59,6.95,,47.59359,-54.27349
2018-06-09 09:20:00+00:00,182.0,181.0,5.78,6.49,,47.59359,-54.27349
2018-06-09 09:30:00+00:00,188.0,188.0,5.42,6.07,,47.59359,-54.27349
2018-06-09 09:40:00+00:00,213.0,207.0,4.82,5.32,,47.59359,-54.27349
2018-06-09 09:50:00+00:00,237.0,242.0,6.19,6.86,,47.59359,-54.27349
2018-06-09 10:00:00+00:00,230.0,230.0,7.33,8.48,,47.59359,-54.27349
2018-06-09 10:10:00+00:00,247.0,248.0,7.04,8.54,,47.59359,-54.27349
2018-06-09 10:20:00+00:00,239.0,244.0,8.03,9.2,,47.59359,-54.27349
2018-06-09 10:30:00+00:00,247.0,248.0,6.94,8.02,,47.59359,-54.27349
2018-06-09 10:40:00+00:00,225.0,221.0,6.47,7.25,,47.59359,-54.27349
2018-06-09 10:50:00+00:00,237.0,230.0,5.69,6.58,,47.59359,-54.27349
2018-06-09 11:00:00+00:00,231.0,233.0,6.11,6.8,,47.59359,-54.27349
2018-06-09 11:10:00+00:00,242.0,234.0,5.35,5.98,,47.59359,-54.27349
2018-06-09 11:30:00+00:00,247.0,244.0,5.16,5.84,,47.59359,-54.27349
2018-06-09 11:40:00+00:00,248.0,243.0,5.1,5.98,,47.59359,-54.27349
2018-06-09 11:50:00+00:00,238.0,235.0,4.63,5.3,,47.59359,-54.27349
2018-06-09 12:00:00+00:00,262.0,262.0,5.37,6.19,,47.59359,-54.27349
2018-06-09 12:10:00+00:00,236.0,239.0,6.58,7.16,,47.59359,-54.27349
2018-06-09 12:20:00+00:00,235.0,235.0,5.04,5.75,,47.59359,-54.27349
2018-06-09 12:30:00+00:00,234.0,231.0,4.75,5.16,,47.59359,-54.27349
2018-06-09 12:40:00+00:00,234.0,234.0,5.48,5.92,,47.59359,-54.27349
2018-06-09 14:00:00+00:00,229.0,230.0,4.69,4.8,,47.59359,-54.27349
2018-06-09 17:40:00+00:00,231.0,232.0,7.1,7.86,,47.59359,-54.27349
2018-06-09 17:50:00+00:00,227.0,224.0,7.32,8.26,,47.59359,-54.27349
2018-06-09 18:00:00+00:00,231.0,234.0,7.55,8.64,,47.59359,-54.27349
2018-06-09 18:10:00+00:00,234.0,237.0,6.72,7.43,,47.59359,-54.27349
2018-06-09 18:20:00+00:00,233.0,240.0,7.19,8.88,,47.59359,-54.27349
2018-06-09 18:30:00+00:00,231.0,233.0,7.51,8.54,,47.59359,-54.27349
2018-06-09 18:40:00+00:00,235.0,244.0,6.74,7.8,,47.59359,-54.27349
2018-06-09 18:50:00+00:00,233.0,233.0,8.1,9.32,,47.59359,-54.27349
2018-06-09 19:00:00+00:00,228.0,229.0,8.06,9.31,,47.59359,-54.27349
2018-06-09 19:10:00+00:00,232.0,236.0,7.95,9.1,,47.59359,-54.27349
2018-06-09 19:20:00+00:00,229.0,226.0,8.11,9.07,,47.59359,-54.27349
2018-06-09 19:30:00+00:00,232.0,234.0,7.4,8.15,,47.59359,-54.27349
2018-06-09 19:40:00+00:00,230.0,230.0,6.62,7.31,,47.59359,-54.27349
2018-06-09 19:50:00+00:00,229.0,237.0,7.67,8.7,,47.59359,-54.27349
2018-06-09 20:00:00+00:00,220.0,221.0,6.84,7.67,,47.59359,-54.27349
2018-06-09 20:10:00+00:00,220.0,222.0,6.51,7.45,,47.59359,-54.27349
2018-06-09 20:20:00+00:00,223.0,225.0,6.78,7.67,,47.59359,-54.27349
2018-06-09 20:30:00+00:00,226.0,229.0,9.43,10.6,,47.59359,-54.27349
2018-06-09 20:40:00+00:00,225.0,223.0,9.31,9.99,,47.59359,-54.27349
2018-06-09 20:50:00+00:00,220.0,220.0,8.25,8.96,,47.59359,-54.27349
2018-06-09 21:00:00+00:00,223.0,223.0,7.6,8.21,,47.59359,-54.27349
2018-06-09 21:10:00+00:00,221.0,222.0,6.93,7.66,,47.59359,-54.27349
2018-06-09 21:20:00+00:00,220.0,221.0,5.89,6.52,,47.59359,-54.27349
2018-06-09 21:30:00+00:00,221.0,220.0,5.8,6.53,,47.59359,-54.27349
2018-06-09 21:40:00+00:00,216.0,216.0,6.79,7.32,,47.59359,-54.27349
2018-06-09 21:50:00+00:00,215.0,216.0,6.95,7.26,,47.59359,-54.27349
2018-06-09 22:00:00+00:00,217.0,221.0,7.01,7.65,,47.59359,-54.27349
2018-06-09 22:10:00+00:00,223.0,226.0,7.52,8.73,,47.59359,-54.27349
2018-06-09 22:20:00+00:00,231.0,230.0,6.62,7.05,,47.59359,-54.27349
2018-06-09 22:30:00+00:00,233.0,232.0,6.12,6.74,,47.59359,-54.27349
2018-06-09 22:40:00+00:00,230.0,231.0,7.47,8.48,,47.59359,-54.27349
2018-06-09 22:50:00+00:00,224.0,228.0,8.01,9.13,,47.59359,-54.27349
2018-06-09 23:00:00+00:00,225.0,223.0,8.94,9.57,,47.59359,-54.27349
2018-06-09 23:10:00+00:00,228.0,228.0,8.61,9.29,,47.59359,-54.27349
2018-06-09 23:20:00+00:00,228.0,230.0,8.32,8.91,,47.59359,-54.27349
2018-06-09 23:30:00+00:00,220.0,221.0,8.45,9.1,,47.59359,-54.27349
2018-06-09 23:40:00+00:00,210.0,210.0,7.49,8.54,,47.59359,-54.27349
2018-06-09 23:50:00+00:00,211.0,214.0,7.12,7.81,,47.59359,-54.27349
